DW4879 Weather Reports


time (UTC)temp
F
wind
direction
speed
knots
gust
knots
rain 1hr
in
rain 24hr
in
rain mn
in
humidity
%
barometer
mb
20260504000555 75 189 6.1 9.6 0.00 0.00 0.00 17 1016.3
20260504000132 75 194 6.1 8.7 0.00 0.00 0.00 17 1016.3
20260503235504 75 179 4.3 8.7 0.00 0.00 0.00 16 1016.3
20260503235101 75 207 3.5 7.8 0.00 0.00 0.00 17 1016.4
20260503234505 75 246 1.7 7.8 0.00 0.00 0.00 17 1016.5
20260503234058 75 272 3.5 7.8 0.00 0.00 0.00 16 1016.6
20260503233604 75 289 3.5 8.7 0.00 0.00 0.00 16 1016.5
20260503233004 76 284 3.5 7.0 0.00 0.00 0.00 16 1016.6
20260503232514 76 180 2.6 5.2 0.00 0.00 0.00 16 1016.6
20260503232002 77 249 2.6 7.8 0.00 0.00 0.00 16 1016.7
20260503231514 76 224 3.5 8.7 0.00 0.00 0.00 16 1016.7
20260503231016 76 183 2.6 7.8 0.00 0.00 0.00 16 1016.8
20260503230524 75 207 2.6 9.6 0.00 0.00 0.00 16 1016.8
20260503230028 75 281 6.1 11.3 0.00 0.00 0.00 16 1016.9
20260503225533 75 203 5.2 9.6 0.00 0.00 0.00 16 1016.9
20260503225039 76 304 3.5 9.6 0.00 0.00 0.00 16 1017.0
20260503224547 77 241 6.1 13.9 0.00 0.00 0.00 15 1017.1
20260503224041 77 170 3.5 17.4 0.00 0.00 0.00 15 1017.2
20260503223545 77 206 0.9 7.0 0.00 0.00 0.00 15 1017.2
20260503223050 76 300 3.5 10.4 0.00 0.00 0.00 16 1017.3
20260503222557 76 220 1.7 10.4 0.00 0.00 0.00 15 1017.4
20260503222048 76 211 3.5 10.4 0.00 0.00 0.00 16 1017.4
20260503221555 75 5 5.2 12.2 0.00 0.00 0.00 15 1017.6
20260503221100 76 328 2.6 12.2 0.00 0.00 0.00 16 1017.7
20260503220503 75 161 2.6 6.1 0.00 0.00 0.00 16 1017.7
20260503220121 75 197 3.5 7.8 0.00 0.00 0.00 16 1017.8
20260503215604 76 159 3.5 11.3 0.00 0.00 0.00 15 1017.9
20260503215009 77 161 7.0 11.3 0.00 0.00 0.00 14 1017.8
20260503214604 78 325 2.6 9.6 0.00 0.00 0.00 15 1018.0
20260503214004 77 204 2.6 8.7 0.00 0.00 0.00 16 1018.0
20260503213559 76 269 4.3 8.7 0.00 0.00 0.00 15 1018.1
20260503213105 75 282 5.2 8.7 0.00 0.00 0.00 16 1018.2
20260503212556 74 312 2.6 11.3 0.00 0.00 0.00 16 1018.2
20260503212047 74 30 7.0 11.3 0.00 0.00 0.00 16 1018.3
20260503211554 73 294 6.1 9.6 0.00 0.00 0.00 16 1018.4
20260503211043 73 327 4.3 9.6 0.00 0.00 0.00 16 1018.4
20260503210535 71 279 0.9 3.5 0.00 0.00 0.00 17 1018.5
20260503210042 71 283 0.9 3.5 0.00 0.00 0.00 17 1018.6
20260503205533 71 325 1.7 4.3 0.00 0.00 0.00 17 1018.8
20260503205039 71 292 1.7 7.8 0.00 0.00 0.00 17 1018.9
20260503204545 72 263 3.5 9.6 0.00 0.00 0.00 17 1018.9
20260503204051 72 327 4.3 12.2 0.00 0.00 0.00 17 1018.9
20260503203542 73 298 4.3 9.6 0.00 0.00 0.00 16 1019.0
20260503203054 73 343 4.3 8.7 0.00 0.00 0.00 16 1019.0
20260503202558 72 115 2.6 7.8 0.00 0.00 0.00 17 1019.1
20260503202104 72 360 2.6 10.4 0.00 0.00 0.00 17 1019.3
20260503201506 73 30 3.5 10.4 0.00 0.00 0.00 17 1019.3
20260503201011 74 5 3.5 8.7 0.00 0.00 0.00 17 1019.5
20260503200605 74 60 5.2 7.8 0.00 0.00 0.00 17 1019.5
20260503200007 73 153 1.7 9.6 0.00 0.00 0.00 16 1019.6
20260503195602 73 26 2.6 11.3 0.00 0.00 0.00 16 1019.7
20260503195002 74 13 1.7 11.3 0.00 0.00 0.00 16 1019.7
20260503194602 74 180 0.9 6.1 0.00 0.00 0.00 16 1019.8
20260503194104 74 269 2.6 6.1 0.00 0.00 0.00 16 1019.9
20260503193506 75 211 0.0 9.6 0.00 0.00 0.00 15 1020.1
20260503193102 74 190 1.7 9.6 0.00 0.00 0.00 16 1020.1
20260503192502 74 267 3.5 8.7 0.00 0.00 0.00 16 1020.2
20260503192058 75 247 1.7 8.7 0.00 0.00 0.00 17 1020.3
20260503191603 75 206 3.5 8.7 0.00 0.00 0.00 17 1020.3
20260503191054 75 242 2.6 13.0 0.00 0.00 0.00 17 1020.4
20260503190548 74 186 4.3 13.0 0.00 0.00 0.00 17 1020.4
20260503190048 73 333 0.9 7.8 0.00 0.00 0.00 18 1020.5
20260503185554 73 178 4.3 8.7 0.00 0.00 0.00 18 1020.8
20260503185104 73 355 4.3 8.7 0.00 0.00 0.00 19 1020.8
20260503184603 73 134 2.6 8.7 0.00 0.00 0.00 18 1021.0
20260503184101 73 221 3.5 9.6 0.00 0.00 0.00 19 1021.1
20260503183608 73 189 3.5 12.2 0.00 0.00 0.00 18 1021.1
20260503183007 72 127 4.3 10.4 0.00 0.00 0.00 20 1021.2
20260503182603 72 112 1.7 8.7 0.00 0.00 0.00 20 1021.3
20260503182005 72 211 6.1 8.7 0.00 0.00 0.00 20 1021.4
20260503181603 72 173 0.9 7.8 0.00 0.00 0.00 20 1021.5
20260503181106 71 209 1.7 8.7 0.00 0.00 0.00 20 1021.6
20260503180512 71 110 3.5 10.4 0.00 0.00 0.00 20 1021.7
20260503180008 71 211 3.5 10.4 0.00 0.00 0.00 20 1021.7
20260503175602 70 55 2.6 9.6 0.00 0.00 0.00 21 1021.7
20260503175006 70 159 4.3 7.8 0.00 0.00 0.00 22 1021.8
20260503174601 70 105 3.5 10.4 0.00 0.00 0.00 23 1021.9
20260503174006 69 141 6.1 11.3 0.00 0.00 0.00 23 1021.8
20260503173559 69 110 1.7 8.7 0.00 0.00 0.00 25 1022.0
20260503173114 68 102 4.3 8.7 0.00 0.00 0.00 26 1022.1
20260503172507 68 200 3.5 9.6 0.00 0.00 0.00 25 1022.2
20260503172105 68 143 4.3 9.6 0.00 0.00 0.00 27 1022.2
20260503171506 67 93 3.5 9.6 0.00 0.00 0.00 27 1022.2
20260503171014 67 38 5.2 9.6 0.00 0.00 0.00 27 1022.3
20260503170518 67 113 3.5 8.7 0.00 0.00 0.00 28 1022.4
20260503160113 61 119 6.1 10.4 0.00 0.00 0.00 33 1022.8
20260503151009 57 94 5.2 10.4 0.00 0.00 0.00 37 1023.1
20260503150605 56 84 7.0 11.3 0.00 0.00 0.00 37 1023.1
20260503131048 46 68 4.3 8.7 0.00 0.00 0.00 42 1022.7
20260503130556 45 42 3.5 8.7 0.00 0.00 0.00 41 1022.7
20260503110603 44 106 2.6 7.0 0.00 0.00 0.00 41 1022.5
20260503081516 47 113 1.7 3.5 0.00 0.00 0.00 37 1022.4
20260503081015 47 107 2.6 3.5 0.00 0.00 0.00 38 1022.5
20260503080521 47 110 2.6 3.5 0.00 0.00 0.00 37 1022.5
20260503072544 48 98 2.6 3.5 0.00 0.00 0.00 35 1022.5
20260503072050 49 94 2.6 3.5 0.00 0.00 0.00 34 1022.6
20260503071549 49 105 2.6 3.5 0.00 0.00 0.00 34 1022.5
20260503071049 49 103 1.7 3.5 0.00 0.00 0.00 33 1022.6
20260503070555 49 111 1.7 5.2 0.00 0.00 0.00 33 1022.6
20260503060110 53 98 1.7 2.6 0.00 0.00 0.00 30 1022.2
20260503055103 53 90 1.7 2.6 0.00 0.00 0.00 30 1022.2
20260503054506 53 93 1.7 2.6 0.00 0.00 0.00 30 1022.1
20260503054103 53 88 1.7 2.6 0.00 0.00 0.00 30 1022.0
20260503053505 54 108 1.7 2.6 0.00 0.00 0.00 30 1022.0
20260503053101 54 108 1.7 2.6 0.00 0.00 0.00 30 1022.0
20260503052505 54 136 1.7 3.5 0.00 0.00 0.00 30 1022.0
20260503052009 55 146 2.6 3.5 0.00 0.00 0.00 30 1021.9
20260503051616 55 175 0.9 3.5 0.00 0.00 0.00 30 1022.0
20260503051006 55 109 0.0 1.7 0.00 0.00 0.00 29 1021.9
20260503050605 55 109 0.0 1.7 0.00 0.00 0.00 29 1021.8
20260503050053 55 109 0.0 1.7 0.00 0.00 0.00 28 1021.9
20260503045601 55 109 0.0 1.7 0.00 0.00 0.00 28 1021.9
20260503045002 56 109 0.0 1.7 0.00 0.00 0.00 28 1021.8
20260503044513 56 109 0.0 0.9 0.00 0.00 0.00 28 1021.8
20260503044105 56 159 0.0 0.0 0.00 0.00 0.00 28 1021.9
20260503043506 56 159 0.0 0.0 0.00 0.00 0.00 28 1021.9
20260503043105 56 159 0.0 0.0 0.00 0.00 0.00 28 1021.8
20260503042552 56 159 0.0 0.0 0.00 0.00 0.00 28 1021.8
20260503042101 56 159 0.0 0.0 0.00 0.00 0.00 28 1021.8
20260503041502 56 159 0.0 0.0 0.00 0.00 0.00 28 1021.8
20260503041011 56 159 0.0 0.0 0.00 0.00 0.00 28 1021.8
20260503040606 56 159 0.0 0.0 0.00 0.00 0.00 28 1021.8
20260503040008 56 159 0.0 0.0 0.00 0.00 0.00 28 1021.8
20260503035604 57 159 0.0 0.0 0.00 0.00 0.00 27 1021.8
20260503035005 57 159 0.0 0.0 0.00 0.00 0.00 27 1021.6
20260503034512 57 159 0.0 0.0 0.00 0.00 0.00 27 1021.6
20260503034002 57 159 0.0 0.0 0.00 0.00 0.00 27 1021.6
20260503033514 57 159 0.0 0.0 0.00 0.00 0.00 26 1021.7
20260503033001 58 159 0.0 0.0 0.00 0.00 0.00 26 1021.6
20260503032557 58 159 0.0 0.0 0.00 0.00 0.00 26 1021.5
20260503032106 58 159 0.0 0.0 0.00 0.00 0.00 26 1021.5
20260503031556 59 159 0.0 0.0 0.00 0.00 0.00 25 1021.5
20260503031047 59 159 0.0 0.9 0.00 0.00 0.00 25 1021.5
20260503030554 59 159 0.0 0.9 0.00 0.00 0.00 25 1021.3
20260503030105 60 159 0.0 0.9 0.00 0.00 0.00 25 1021.3
20260503025503 60 159 0.0 0.9 0.00 0.00 0.00 24 1021.3
20260503025009 60 159 0.0 0.9 0.00 0.00 0.00 24 1021.2
20260503024524 61 159 0.0 1.7 0.00 0.00 0.00 24 1021.1
20260503024022 61 159 0.0 1.7 0.00 0.00 0.00 24 1021.2
20260503023530 62 159 0.0 1.7 0.00 0.00 0.00 23 1021.1
20260503023038 62 159 0.0 1.7 0.00 0.00 0.00 23 1021.1
20260503022544 63 127 0.0 1.7 0.00 0.00 0.00 23 1021.1
20260503022050 63 127 0.0 1.7 0.00 0.00 0.00 22 1021.1
20260503021602 64 127 0.0 1.7 0.00 0.00 0.00 22 1021.0
20260503021104 64 127 0.0 1.7 0.00 0.00 0.00 21 1021.0
20260503020505 65 127 0.0 1.7 0.00 0.00 0.00 21 1020.9
20260503015506 66 95 0.0 1.7 0.00 0.00 0.00 20 1020.9
20260503015058 66 95 0.0 1.7 0.00 0.00 0.00 20 1020.9
20260503014549 66 95 0.9 1.7 0.00 0.00 0.00 20 1020.8
20260503014057 67 95 0.0 3.5 0.00 0.00 0.00 19 1020.9
20260503013603 67 73 0.0 3.5 0.00 0.00 0.00 19 1020.9
20260503013007 68 87 0.9 3.5 0.00 0.00 0.00 19 1020.8
20260503012511 68 239 0.0 1.7 0.00 0.00 0.00 19 1020.9
20260503012019 68 240 0.0 5.2 0.00 0.00 0.00 19 1020.9
20260503011524 68 209 0.9 5.2 0.00 0.00 0.00 19 1020.8
20260503011032 68 221 0.9 1.7 0.00 0.00 0.00 19 1020.9
20260503010539 68 69 0.0 2.6 0.00 0.00 0.00 19 1020.9
20260503010048 69 69 0.9 2.6 0.00 0.00 0.00 18 1020.9
20260503005537 69 115 0.9 3.5 0.00 0.00 0.00 18 1020.9
20260503005045 69 138 0.9 6.1 0.00 0.00 0.00 19 1020.9
20260503004600 69 96 0.9 7.0 0.00 0.00 0.00 18 1021.0
20260503004058 69 119 0.9 3.5 0.00 0.00 0.00 18 1021.0
20260503003549 69 292 1.7 3.5 0.00 0.00 0.00 18 1021.0
20260503003111 70 287 0.9 2.6 0.00 0.00 0.00 18 1021.1
20260503002549 70 169 0.0 3.5 0.00 0.00 0.00 18 1021.2
20260503002056 70 163 0.9 6.1 0.00 0.00 0.00 18 1021.2
20260503001601 69 143 2.6 6.1 0.00 0.00 0.00 19 1021.1
20260503001038 69 151 0.9 5.2 0.00 0.00 0.00 18 1021.1